TimeEDT,TemperatureF,Dew PointF,Humidity,Sea Level PressureIn,VisibilityMPH,Wind Direction,Wind SpeedMPH,Gust SpeedMPH,PrecipitationIn,Events,Conditions,WindDirDegrees,DateUTC
12:53 AM,33.1,15.1,48,29.95,10.0,West,13.8,23.0,N/A,,Overcast,260,2013-04-03 04:53:00
1:53 AM,33.1,15.1,48,29.96,10.0,West,11.5,23.0,N/A,,Partly Cloudy,280,2013-04-03 05:53:00
2:53 AM,33.1,16.0,50,29.96,10.0,West,9.2,19.6,N/A,,Overcast,270,2013-04-03 06:53:00
3:53 AM,32.0,17.1,54,29.95,10.0,Variable,4.6,-,N/A,,Overcast,0,2013-04-03 07:53:00
4:53 AM,32.0,12.9,45,29.96,10.0,West,13.8,23.0,N/A,,Mostly Cloudy,280,2013-04-03 08:53:00
5:53 AM,30.9,14.0,50,29.97,10.0,West,17.3,25.3,N/A,,Clear,270,2013-04-03 09:53:00
6:53 AM,30.9,15.1,52,30.00,10.0,West,10.4,-,N/A,,Clear,270,2013-04-03 10:53:00
7:53 AM,33.1,10.9,40,30.01,10.0,West,15.0,-,N/A,,Clear,280,2013-04-03 11:53:00
8:53 AM,35.1,12.0,39,30.01,10.0,West,18.4,27.6,N/A,,Clear,280,2013-04-03 12:53:00
9:53 AM,37.0,12.9,37,29.99,10.0,WNW,23.0,32.2,0.00,,Clear,290,2013-04-03 13:53:00
10:53 AM,39.9,10.9,31,29.99,10.0,West,16.1,29.9,N/A,,Clear,280,2013-04-03 14:53:00
11:53 AM,42.1,10.0,27,29.98,10.0,WNW,23.0,31.1,N/A,,Clear,290,2013-04-03 15:53:00
12:53 PM,44.1,10.9,26,29.96,10.0,West,17.3,28.8,N/A,,Clear,280,2013-04-03 16:53:00
1:53 PM,45.0,8.1,22,29.96,10.0,West,20.7,28.8,N/A,,Clear,270,2013-04-03 17:53:00
2:53 PM,46.0,10.9,24,29.96,10.0,West,19.6,27.6,N/A,,Clear,270,2013-04-03 18:53:00
3:53 PM,46.0,10.9,24,29.96,10.0,NW,13.8,25.3,N/A,,Clear,320,2013-04-03 19:53:00
4:53 PM,46.0,10.9,24,29.96,10.0,West,18.4,29.9,N/A,,Clear,260,2013-04-03 20:53:00
5:53 PM,44.1,10.0,25,29.98,10.0,WNW,20.7,33.4,N/A,,Clear,290,2013-04-03 21:53:00
6:53 PM,41.0,10.0,28,30.01,10.0,West,13.8,24.2,N/A,,Clear,280,2013-04-03 22:53:00
7:53 PM,39.0,10.9,32,30.05,10.0,West,15.0,23.0,N/A,,Clear,280,2013-04-03 23:53:00
8:53 PM,37.9,12.0,35,30.10,10.0,WNW,13.8,21.9,N/A,,Clear,290,2013-04-04 00:53:00
9:53 PM,36.0,14.0,41,30.13,10.0,West,11.5,20.7,N/A,,Clear,280,2013-04-04 01:53:00
10:53 PM,35.1,12.9,40,30.15,10.0,West,11.5,20.7,N/A,,Clear,280,2013-04-04 02:53:00
11:53 PM,34.0,14.0,44,30.17,10.0,West,11.5,19.6,N/A,,Clear,280,2013-04-04 03:53:00